World > North America > United States > Pennsylvania > Moshannon  

Moshannon, PA Hourly Weather Updates

Feedback E-mail the Weather

Quick WX

Moshannon, PA Weather Maps

°F °C°F °C
Moshannon Weather Map
UTC Time: 2/26/2024, 08:07
Your Time:

Moshannon, PA Regional Weather

Expires:202402260900;;715338
ASUS41 KCTP 260803
RWRCTP

REGIONAL WEATHER ROUNDUP
NATIONAL WEATHER SERVICE STATE COLLEGE PA
300 AM EST MON FEB 26 2024

Note: "fair" indicates few or no clouds below 12,000 feet with no 
significant weather and/or obstructions to visibility.

* = STATION THAT DOES NOT REPORT PRECIPITATION /E.G. RAIN...SNOW...ETC/
    THUNDER OR FOG.


PAZ004>006-010>012-017>019-024>028-033>037-041-042-045-046-049>053-260900-
CENTRAL PENNSYLVANIA
  
CITY           SKY/WX    TMP DP  RH WIND       PRES   REMARKS
BRADFORD       CLOUDY    40  21  46 SW5       29.87S                  
ST MARYS       MOCLDY    37  19  48 CALM      29.91F                  
DUBOIS         MOCLDY    40  19  43 CALM      29.89S                  
CLEARFIELD     CLOUDY    29  20  69 CALM      29.92S                  
JOHNSTOWN      CLOUDY    43  22  43 SW7       29.90F                  
SOMERSET       PTCLDY    41  23  48 SW9       29.93S                  
ALTOONA        PTCLDY    37  22  54 CALM      29.94S                  
STATE COLLEGE  MOCLDY    35  22  58 CALM      29.94S                  
REEDSVILLE     MOCLDY    32  25  74 CALM      29.97S                  
WELLSBORO      CLOUDY    34  21  60 S7        29.89S                  
WILLIAMSPORT   PTCLDY    33  23  66 CALM      29.97S                  
SELINSGROVE    MOCLDY    36  23  59 SW3       29.99F                  
FT INDIANTOWN  CLOUDY    30  24  80 CALM      30.00F                  
CAPITAL CITY   MOCLDY    36  25  64 CALM      30.02F                  
HARRISBURG     MOCLDY    34  25  69 SE5       30.01F                  
YORK           PTCLDY    34  25  69 CALM      30.00F                  
$$


SKY/WX - Weather  TMP - Temperature  DP - Dew Point  RH - Humidity
WIND - Wind Direction/Speed PRES - Barometric Pressure VSB - Visibility
WCI - Wind Chill Index E13G22 Wind - East Wind 13 mph/Gusts of 22 mph

Trending Headlines

Trending Entertainment Headlines

Moshannon Radar Loop

Use the map search tool if you want to place a location marker on the radar map...

Moshannon Quick Facts

National Two Day Weather Forecast


E-mail the Moshannon Weather Forecast

Voice your opinion or tell us about page issues...